Location: Prairie State College
(41.5244°N, 87.6382°W)
Time: 08:10:53
(UTC-05:00)

MSX - Visible Passes

Search period start: 01 April 2015 00:00
Search period end: 11 April 2015 00:00
Orbit: 894 x 907 km, 98.7° (Epoch: 27 March)

Date Brightness Start Highest point End Pass type
(mag) Time Alt. Az. Time Alt. Az. Time Alt. Az.
01 Apr 3.9 19:53:19 10° SSE 19:58:57 64° ENE 20:04:38 10° N visible
01 Apr 6.3 21:37:21 10° SW 21:41:15 18° W 21:44:55 10° NW visible
02 Apr 3.8 19:56:06 10° SSE 20:01:44 68° ENE 20:07:27 10° N visible
02 Apr 6.4 21:40:24 10° SW 21:44:06 17° W 21:47:34 10° NW visible
03 Apr 3.8 19:58:52 10° SSE 20:04:33 72° ENE 20:10:17 10° N visible
03 Apr 6.4 21:43:28 10° SW 21:46:58 16° W 21:50:12 10° NW visible
04 Apr 3.8 20:01:39 10° SSE 20:07:21 76° ENE 20:13:06 10° N visible
04 Apr 6.4 21:46:33 10° WSW 21:49:50 15° W 21:52:48 10° NW visible
05 Apr 3.8 20:04:27 10° SSE 20:10:09 80° ENE 20:15:55 10° NNW visible
05 Apr 6.5 21:49:41 10° WSW 21:52:42 14° W 21:55:22 10° WNW visible
06 Apr 3.8 20:07:15 10° SSE 20:12:58 84° ENE 20:18:44 10° NNW visible
06 Apr 6.5 21:52:50 10° WSW 21:55:33 13° W 21:57:54 10° WNW visible
07 Apr 3.8 20:10:03 10° SSE 20:15:46 89° E 20:21:33 10° NNW visible
07 Apr 6.5 21:56:04 10° WSW 21:58:25 12° W 22:00:24 10° WNW visible
08 Apr 3.9 20:12:51 10° SSE 20:18:35 87° WSW 20:24:22 10° NNW visible
08 Apr 6.6 21:59:24 10° WSW 22:01:17 11° W 22:02:46 10° WNW visible
09 Apr 3.9 20:15:40 10° SSE 20:21:23 83° WSW 20:27:10 10° NNW visible
09 Apr 6.7 22:02:58 10° W 22:04:10 10° W 22:04:55 10° WNW visible
10 Apr 4.0 20:18:29 10° S 20:24:12 78° WSW 20:29:58 10° NNW visible
